SMILE

Last updated on Thu Sep 10 2026 00:03:32 GMT+0000 (Coordinated Universal Time)

1 69123U 26109A 26249.70371330 .00000567 00000+0 00000+0 0 9992 2 69123 70.0185 206.2941 8192313 285.8912 5.3907 0.47522640 330
UTC large
Height (km)
Speed (km/s)
/
Latitude / Longitude
Inclination (degrees)
Orbital Period (minutes)
Azimuth
Elevation
Range (km)
Doppler Factor

Next 0 passes for location: London (51.5072 / 0.1276)

No passes found over London.
SMILE